Regional Weather Roundup
Issued by NWS

Home | Current Version | Previous Version | Text Only | Print | Product List | Glossary On
Versions: 1 2 3 4 5 6 7 8 9 10 11 12 13 14 15 16 17 18 19 20 21 22 23 24 25 26 27 28 29 30 31 32 33 34 35 36 37 38 39 40 41 42 43 44 45 46 47 48 49 50
372
ASUS44 KLIX 012310
RWRLA
LOUISIANA WEATHER ROUNDUP
NATIONAL WEATHER SERVICE NEW ORLEANS LA
600 PM CDT WED OCT 01 2014

NOTE: "FAIR" INDICATES FEW OR NO CLOUDS BELOW 12,000 FEET WITH NO
      SIGNIFICANT WEATHER AND/OR OBSTRUCTIONS TO VISIBILITY.
      SKY/WX - SKY CONDITION AND SIGNIFICANT WEATHER.
      TMP - AIR TEMPERATURE.    DP   - DEWPOINT TEMPERATURE.
      RH  - RELATIVE HUMIDITY.  PRES - PRESSURE.
      HX  - HEAT INDEX.         WCI  - WIND CHILL INDEX.

*  THESE STATIONS ARE NOT NWS OR FAA STATIONS AND ARE NOT UNDER
   NWS QUALITY CONTROL.

LAZ040-048-061>063-065-066-069-020000-
SOUTHEAST LOUISIANA

CITY           SKY/WX    TMP DP  RH WIND       PRES   REMARKS
N.O. AUDUBON     N/A     82  76  82 MISG        N/A
N.O. INTL ARPT CLOUDY    82  74  76 SE5       29.89R
N.O. LAKEFRONT CLOUDY    82  74  76 SE14      29.90R
N.O. DOWNTOWN* CLOUDY    81  72  74 SE10      29.90R
SLIDELL        CLOUDY    81  73  76 E6        29.90R
BATON ROUGE    PTCLDY    81  71  71 SE10      29.88R
BOOTHVILLE     MOCLDY    80  76  87 SE6       29.91S
BELLE CHASSE   CLOUDY    81  74  79 SE9       29.89R
BOGALUSA*      FAIR      83  71  68 SE6       29.91S
GALLIANO*      NOT AVBL
NEW ROADS*     MOCLDY    83  74  73 SE3       29.87R
GONZALES*      RAIN      78  78 100 CALM      29.88R
HAMMOND*       MOCLDY    81  72  74 SE6       29.91S
HOUMA*         MOCLDY   N/A N/A N/A SE6       29.88F
PORT FOURCHON* PTCLDY    81  75  83 VRB7      29.93R

$$

LAZ041-044-053-054-020000-
SOUTHWEST LOUISIANA

CITY           SKY/WX    TMP DP  RH WIND       PRES   REMARKS
LAKE CHARLES   SUNNY     85  76  74 S6        29.83R
LAFAYETTE      MOSUNNY   83  78  85 S7        29.85S
PATTERSON      MOSUNNY   81  75  83 SE3       29.90R
SALT POINT       N/A     84  73  69 SE3       29.86R
NEW IBERIA     MOSUNNY   84  77  79 S12       29.86R
CHENAULT AIRPK MOSUNNY   84  75  74 S8        29.84R

$$

LAZ027-028-020000-
CENTRAL LOUISIANA

CITY           SKY/WX    TMP DP  RH WIND       PRES   REMARKS
FORT POLK      MOSUNNY   84  75  76 SE6       29.83R
ALEXANDRIA INT PTSUNNY   87  73  62 SE12      29.82R
ALEXANDRIA     MOSUNNY   85  73  67 SE8       29.84R

$$

LAZ001-002-020000-
NORTHWEST LOUISIANA

CITY           SKY/WX    TMP DP  RH WIND       PRES   REMARKS
SHREVEPORT     MOSUNNY   84  76  76 SE6       29.79S
BARKSDALE AFB  MOSUNNY   83  76  77 SE7       29.80S
DTN SHREVEPORT SUNNY     83  74  74 SE7       29.80S

$$

LAZ014-016-020000-
NORTHEAST LOUISIANA

CITY           SKY/WX    TMP DP  RH WIND       PRES   REMARKS
MONROE         PTSUNNY   85  71  63 S6        29.84S
TALLULAH       CLEAR     88  67  49 S12       29.85S

$$




USA.gov is the U.S. government's official web portal to all federal, state and local government web resources and services.